• In Belarus
  • List of Countries
  • For 7 days
  • Water Temperature
  • Weather Map
  • Weather Widgets
  • user-avatar
    Login

    Hourly Weather Mérida

    Today, 7 June, Sunday

    Time Temperature Precipitation Wind Pressure Humidity
    00:00 +15°C° 0.3 mm 1 mps 594 mmHg 93%
    01:00 +15°C° 0.3 mm 1 mps 594 mmHg 93%
    02:00 +16°C° 1.1 mm 1 mps 594 mmHg 92%
    03:00 +16°C° 1.1 mm 2 mps 594 mmHg 91%
    04:00 +16°C° 1.1 mm 2 mps 594 mmHg 91%
    05:00 +16°C° 0.1 mm 1 mps 594 mmHg 88%
    06:00 +18°C° 0.1 mm 1 mps 595 mmHg 86%
    07:00 +19°C° 0.1 mm 1 mps 595 mmHg 83%
    08:00 +20°C° 0.3 mm 1 mps 596 mmHg 80%
    09:00 +20°C° 0.3 mm 2 mps 597 mmHg 78%
    10:00 +21°C° 0.3 mm 2 mps 597 mmHg 75%
    11:00 +21°C° 1.4 mm 2 mps 596 mmHg 79%
    12:00 +21°C° 1.4 mm 1 mps 596 mmHg 83%
    13:00 +21°C° 1.4 mm 1 mps 595 mmHg 87%
    14:00 +21°C° 1.4 mm 1 mps 594 mmHg 88%
    15:00 +20°C° 1.4 mm 1 mps 594 mmHg 88%
    16:00 +20°C° 1.4 mm 1 mps 593 mmHg 88%
    17:00 +19°C° 0.6 mm 1 mps 593 mmHg 89%
    18:00 +19°C° 0.6 mm 1 mps 593 mmHg 91%
    19:00 +18°C° 0.6 mm 1 mps 593 mmHg 92%
    20:00 +18°C° 0.1 mm 1 mps 593 mmHg 91%
    21:00 +16°C° 0.1 mm 1 mps 594 mmHg 90%
    22:00 +16°C° 0.1 mm 1 mps 594 mmHg 89%
    23:00 +15°C° 0 mm 1 mps 593 mmHg 90%

    Tomorrow, 8 June, Monday

    Time Temperature Precipitation Wind Pressure Humidity
    00:00 +15°C° 0 mm 1 mps 593 mmHg 90%
    01:00 +14°C° 0 mm 1 mps 592 mmHg 91%
    02:00 +14°C° 0 mm 1 mps 592 mmHg 90%
    03:00 +14°C° 0 mm 1 mps 592 mmHg 89%
    04:00 +14°C° 0 mm 1 mps 592 mmHg 88%
    05:00 +15°C° 0 mm 1 mps 593 mmHg 86%
    06:00 +16°C° 0 mm 1 mps 594 mmHg 84%
    07:00 +18°C° 0 mm 1 mps 595 mmHg 83%
    08:00 +19°C° 0.3 mm 1 mps 595 mmHg 83%
    09:00 +19°C° 0.3 mm 1 mps 595 mmHg 84%
    10:00 +20°C° 0.3 mm 1 mps 595 mmHg 85%
    11:00 +20°C° 1 mm 1 mps 595 mmHg 87%
    12:00 +20°C° 1 mm 1 mps 595 mmHg 89%
    13:00 +20°C° 1 mm 1 mps 594 mmHg 91%
    14:00 +19°C° 1.6 mm 1 mps 594 mmHg 91%
    15:00 +19°C° 1.6 mm 1 mps 594 mmHg 91%
    16:00 +19°C° 1.6 mm 1 mps 593 mmHg 92%
    17:00 +18°C° 2.2 mm 1 mps 593 mmHg 93%
    18:00 +18°C° 2.2 mm 1 mps 593 mmHg 94%
    19:00 +16°C° 2.2 mm 1 mps 593 mmHg 95%
    20:00 +16°C° 2 mm 1 mps 593 mmHg 94%
    21:00 +16°C° 2 mm 1 mps 593 mmHg 93%
    22:00 +16°C° 2 mm 2 mps 593 mmHg 92%
    23:00 +16°C° 0.7 mm 2 mps 593 mmHg 91%

    Day after tomorrow, 9 June, Tuesday

    Time Temperature Precipitation Wind Pressure Humidity
    00:00 +16°C° 0.7 mm 1 mps 593 mmHg 90%
    01:00 +16°C° 0.7 mm 1 mps 593 mmHg 89%
    02:00 +15°C° 0 mm 1 mps 592 mmHg 87%
    03:00 +15°C° 0 mm 1 mps 592 mmHg 86%
    04:00 +14°C° 0 mm 1 mps 591 mmHg 85%
    05:00 +15°C° 0 mm 1 mps 592 mmHg 82%
    06:00 +16°C° 0 mm 1 mps 593 mmHg 80%
    07:00 +18°C° 0 mm 1 mps 594 mmHg 77%
    08:00 +20°C° 0 mm 1 mps 595 mmHg 73%
    09:00 +20°C° 0 mm 2 mps 596 mmHg 68%
    10:00 +23°C° 0 mm 2 mps 597 mmHg 63%
    11:00 +21°C° 1 mm 2 mps 596 mmHg 72%
    12:00 +20°C° 1 mm 2 mps 595 mmHg 81%
    13:00 +20°C° 1 mm 1 mps 594 mmHg 90%
    14:00 +20°C° 1.7 mm 1 mps 593 mmHg 90%
    15:00 +20°C° 1.7 mm 1 mps 592 mmHg 91%
    16:00 +19°C° 1.7 mm 1 mps 592 mmHg 91%
    17:00 +16°C° 1.1 mm 0 mps 592 mmHg 92%
    18:00 +16°C° 1.1 mm 0 mps 592 mmHg 93%
    19:00 +15°C° 1.1 mm 0 mps 592 mmHg 94%
    20:00 +15°C° 0.2 mm 0 mps 592 mmHg 93%
    21:00 +15°C° 0.2 mm 1 mps 592 mmHg 91%
    22:00 +15°C° 0.2 mm 1 mps 593 mmHg 90%
    23:00 +15°C° 0.1 mm 1 mps 592 mmHg 90%

    10 June, Wednesday

    Time Temperature Precipitation Wind Pressure Humidity
    00:00 +14°C° 0.1 mm 1 mps 592 mmHg 89%
    01:00 +14°C° 0.1 mm 1 mps 592 mmHg 89%
    02:00 +14°C° 0.1 mm 1 mps 591 mmHg 90%
    03:00 +14°C° 0.1 mm 1 mps 591 mmHg 91%
    04:00 +14°C° 0.1 mm 1 mps 591 mmHg 91%
    05:00 +15°C° 0 mm 1 mps 592 mmHg 90%
    06:00 +16°C° 0 mm 1 mps 593 mmHg 88%
    07:00 +16°C° 0 mm 0 mps 594 mmHg 86%
    08:00 +18°C° 0.5 mm 1 mps 594 mmHg 88%
    09:00 +18°C° 0.5 mm 1 mps 595 mmHg 89%
    10:00 +19°C° 0.5 mm 1 mps 595 mmHg 90%
    11:00 +19°C° 1.6 mm 1 mps 594 mmHg 91%
    12:00 +18°C° 1.6 mm 1 mps 594 mmHg 93%
    13:00 +18°C° 1.6 mm 1 mps 593 mmHg 94%
    14:00 +18°C° 1.1 mm 1 mps 593 mmHg 93%
    15:00 +19°C° 1.1 mm 1 mps 592 mmHg 91%
    16:00 +19°C° 1.1 mm 1 mps 592 mmHg 90%
    17:00 +18°C° 0.3 mm 1 mps 592 mmHg 91%
    18:00 +15°C° 0.3 mm 0 mps 592 mmHg 93%
    19:00 +15°C° 0.3 mm 0 mps 592 mmHg 95%
    20:00 +14°C° 0.1 mm 0 mps 592 mmHg 93%
    21:00 +14°C° 0.1 mm 0 mps 593 mmHg 92%
    22:00 +15°C° 0.1 mm 1 mps 593 mmHg 91%
    23:00 +15°C° 0.1 mm 1 mps 593 mmHg 91%

    11 June, Thursday

    Time Temperature Precipitation Wind Pressure Humidity
    00:00 +15°C° 0.1 mm 1 mps 592 mmHg 91%
    01:00 +15°C° 0.1 mm 1 mps 592 mmHg 91%
    02:00 +14°C° 0 mm 1 mps 592 mmHg 92%
    03:00 +14°C° 0 mm 1 mps 592 mmHg 92%
    04:00 +14°C° 0 mm 1 mps 591 mmHg 93%
    05:00 +15°C° 0 mm 1 mps 592 mmHg 90%
    06:00 +16°C° 0 mm 1 mps 593 mmHg 88%
    07:00 +18°C° 0 mm 1 mps 594 mmHg 86%
    08:00 +19°C° 0.2 mm 1 mps 595 mmHg 84%
    09:00 +20°C° 0.2 mm 1 mps 595 mmHg 81%
    10:00 +20°C° 0.2 mm 2 mps 596 mmHg 79%
    11:00 +20°C° 1.2 mm 2 mps 595 mmHg 84%
    12:00 +19°C° 1.2 mm 2 mps 594 mmHg 89%
    13:00 +19°C° 1.2 mm 2 mps 593 mmHg 94%
    14:00 +19°C° 1.8 mm 1 mps 593 mmHg 94%
    15:00 +19°C° 1.8 mm 1 mps 592 mmHg 95%
    16:00 +19°C° 1.8 mm 1 mps 592 mmHg 95%
    17:00 +16°C° 1.1 mm 0 mps 592 mmHg 96%
    18:00 +16°C° 1.1 mm 0 mps 592 mmHg 96%
    19:00 +15°C° 1.1 mm 0 mps 592 mmHg 96%
    20:00 +15°C° 0.3 mm 0 mps 593 mmHg 96%
    21:00 +15°C° 0.3 mm 0 mps 593 mmHg 96%
    22:00 +16°C° 0.3 mm 1 mps 593 mmHg 96%
    23:00 +15°C° 0.4 mm 0 mps 593 mmHg 96%

    12 June, Friday

    Time Temperature Precipitation Wind Pressure Humidity
    00:00 +15°C° 0.4 mm 0 mps 593 mmHg 95%
    01:00 +15°C° 0.4 mm 0 mps 593 mmHg 95%
    02:00 +15°C° 1.4 mm 0 mps 593 mmHg 96%
    03:00 +15°C° 1.4 mm 1 mps 593 mmHg 96%
    04:00 +15°C° 1.4 mm 1 mps 592 mmHg 96%
    05:00 +15°C° 2 mm 1 mps 593 mmHg 95%
    06:00 +15°C° 2 mm 1 mps 593 mmHg 95%
    07:00 +15°C° 2 mm 1 mps 594 mmHg 94%
    08:00 +16°C° 0.4 mm 1 mps 594 mmHg 93%
    09:00 +18°C° 0.4 mm 1 mps 595 mmHg 93%
    10:00 +18°C° 0.4 mm 1 mps 595 mmHg 92%
    11:00 +19°C° 0.6 mm 1 mps 595 mmHg 92%
    12:00 +19°C° 0.6 mm 1 mps 595 mmHg 92%
    13:00 +20°C° 0.6 mm 1 mps 594 mmHg 91%
    14:00 +19°C° 1.1 mm 1 mps 594 mmHg 92%
    15:00 +19°C° 1.1 mm 1 mps 593 mmHg 93%
    16:00 +19°C° 1.1 mm 1 mps 592 mmHg 94%
    17:00 +18°C° 0.5 mm 1 mps 592 mmHg 94%
    18:00 +16°C° 0.5 mm 1 mps 592 mmHg 94%
    19:00 +16°C° 0.5 mm 1 mps 592 mmHg 94%
    20:00 +16°C° 0.1 mm 1 mps 593 mmHg 93%
    21:00 +16°C° 0.1 mm 1 mps 593 mmHg 92%
    22:00 +15°C° 0.1 mm 1 mps 593 mmHg 91%
    23:00 +15°C° 0 mm 1 mps 593 mmHg 91%
    Show more